SCP
0 0 0 0 0 0 0 0 0 0 -0 -0 0 0 -0 -0 0 0 0 0 0 0 1 0 0 0 0 0 0 0 0 0 0 0 0 0 0 0 0 0 0 0 0
0 0 0 0 0 0 0 0 0 0 0 0 0 0 -0 -0 0 0 0 1 1 1 1 1 0 0 0 0 0 0 0 0 0 0 0 0 0 0 0 0 0 0 0
0 0 0 0 0 0 0 0 0 0 0 0 0 0 0 0 0 0 1 1 1 1 1 1 1 0 0 0 0 0 0 0 0 0 0 0 0 0 0 0 0 0 0
0 0 0 0 0 0 0 0 0 0 0 0 0 0 0 0 0 1 0 1 1 1 2 1 1 1 0 0 0 0 0 0 0 0 0 0 0 0 0 0 0 0 0
0 0 0 0 0 0 0 0 0 0 0 0 0 0 0 0 0 0 0 1 0 1 2 1 1 1 1 0 0 0 0 0 0 0 0 0 0 0 0 0 0 0 0
0 0 -0 0 0 0 0 0 0 0 0 0 0 0 0 0 0 0 0 1 1 1 2 2 1 1 1 0 0 0 0 0 0 0 0 0 0 0 0 0 0 0 0
0 0 -0 -0 0 0 0 0 0 0 0 0 0 0 0 0 0 0 0 0 0 1 1 2 3 2 1 0 0 0 0 0 0 0 0 0 0 0 0 0 0 0 0
0 0 0 -0 0 0 0 0 0 0 0 0 0 0 0 0 0 0 0 0 0 0 1 2 1 2 1 0 0 0 0 0 0 0 0 0 0 0 0 0 0 0 0
0 0 0 0 -0 0 0 0 0 0 0 0 0 0 0 0 0 0 0 0 0 1 1 1 2 1 1 0 0 0 0 0 0 0 0 0 0 0 0 0 0 0 0
0 0 0 0 0 0 0 0 0 0 0 0 0 0 0 0 0 0 0 0 0 0 1 2 2 2 2 1 0 0 0 0 0 0 0 0 0 0 0 0 0 0 0
0 -0 0 0 0 0 0 0 0 0 0 0 0 0 0 0 0 0 0 0 0 0 1 1 2 2 1 1 1 0 0 0 0 0 0 0 0 0 0 0 0 0 0
0 0 0 0 0 0 0 0 0 0 0 0 0 0 0 0 0 0 0 0 0 0 0 2 2 3 2 1 1 0 0 0 0 0 0 0 0 0 0 0 0 0 0
0 0 0 0 0 0 0 0 0 0 0 0 0 0 0 0 0 0 0 0 0 0 0 1 2 3 2 2 0 0 0 0 0 0 0 0 0 0 0 -0 0 0 -0
0 0 0 0 0 0 0 0 0 0 0 0 0 0 0 0 0 0 0 0 0 0 0 0 1 2 2 2 0 0 0 0 0 0 0 0 0 0 0 0 0 0 -0
0 0 0 0 0 0 0 0 0 0 0 0 0 0 0 0 0 0 0 0 0 0 0 0 1 1 1 1 0 0 0 0 0 0 0 0 0 0 0 -0 -0 -0 -0
0 0 0 0 0 0 0 0 0 0 0 0 0 0 0 0 0 0 0 0 0 0 0 0 0 1 1 1 0 0 0 0 0 0 0 0 0 0 0 0 -0 -0 -0
0 0 0 0 0 0 0 0 0 0 0 0 0 0 0 0 0 0 0 0 0 0 0 0 0 0 1 1 0 0 0 0 0 0 0 0 0 0 0 -0 -0 -0 -0
0 0 0 0 0 0 0 0 0 0 0 0 0 0 0 0 0 0 0 0 0 0 0 0 0 0 0 0 0 0 0 0 0 0 0 0 0 0 0 0 -0 -0 -0
0 0 0 0 0 0 0 0 0 0 0 0 0 0 0 0 0 0 0 0 0 0 0 0 0 0 0 0 0 0 0 0 0 0 0 0 0 0 0 0 -0 -0 -0
0 0 0 0 0 0 0 0 0 0 0 0 0 0 0 0 0 0 0 0 0 0 0 0 0 0 0 0 0 0 0 0 0 0 0 0 0 0 0 0 -0 -0 -0
0 0 0 0 0 0 0 0 0 0 0 0 0 0 0 0 0 0 0 0 0 0 0 0 0 0 0 0 0 0 0 0 0 0 0 0 0 0 0 0 0 -0 -0
0 0 0 0 0 0 0 0 0 0 0 0 0 0 0 0 0 0 0 0 0 0 0 0 0 0 0 0 0 0 0 0 0 0 0 0 0 0 0 0 0 -0 -0
0 0 0 0 0 0 0 0 0 0 0 0 0 0 0 0 0 0 0 0 0 0 0 0 0 0 0 0 0 0 0 0 0 0 0 0 0 0 0 0 -0 -0 -0
0 0 0 0 0 0 0 0 0 0 0 0 0 0 0 0 0 0 0 0 0 0 0 0 0 0 0 0 0 0 0 0 0 0 0 0 0 0 0 0 -0 -0 -0
0 0 0 0 0 0 0 0 0 0 0 0 0 0 0 0 0 0 0 0 0 0 0 0 0 0 0 0 0 0 0 0 0 0 0 0 0 0 0 0 0 0 -0
0 0 0 0 0 0 0 0 0 0 0 0 0 0 0 0 0 0 0 0 0 0 0 0 0 0 0 0 0 0 0 0 0 0 0 0 0 0 0 0 0 0 0
Wind_Speed_500mb
13 15 20 22 23 18 19 23 24 30 33 45 42 34 37 34 35 38 43 45 46 47 49 40 34 28 22 16 12 10 8 10 10 11 10 9 10 10 8 6 6 8 8
9 11 12 11 20 20 24 33 36 33 32 35 41 42 46 46 38 31 34 49 47 41 43 43 40 35 29 23 17 13 10 8 9 11 10 9 9 7 7 6 7 9 8
14 15 15 14 14 25 30 28 20 25 27 32 38 43 45 49 53 48 36 33 53 51 46 46 46 38 37 30 24 18 11 11 8 10 10 8 7 5 6 6 7 8 9
19 20 20 17 25 29 29 22 22 26 28 31 38 38 40 39 54 50 58 44 40 48 49 41 45 40 37 37 31 23 16 13 10 11 11 7 6 5 4 5 7 8 7
19 21 21 24 30 30 26 21 24 30 34 34 36 34 39 45 41 48 52 48 52 45 46 44 44 42 36 41 38 30 24 17 13 14 11 8 7 4 5 5 6 9 7
20 24 22 23 28 29 26 25 34 39 42 40 38 43 47 50 58 57 46 48 41 48 52 48 43 47 48 44 45 37 31 24 17 16 9 10 10 5 8 7 7 8 5
24 26 24 24 25 26 30 35 39 38 37 29 37 45 46 48 47 45 40 41 35 45 50 46 54 59 53 52 52 45 41 31 22 19 10 12 10 7 9 8 8 8 4
30 28 28 25 25 28 31 30 32 36 35 26 31 43 38 46 26 29 40 53 49 42 51 54 52 54 61 52 56 53 48 36 28 21 14 15 11 13 11 10 9 8 3
36 35 33 30 27 28 28 29 32 32 38 34 26 25 23 14 55 37 25 23 43 52 47 51 48 67 58 50 55 43 54 48 33 23 19 18 12 16 12 10 11 9 6
33 34 39 39 36 34 33 31 25 30 33 36 30 28 37 49 51 46 57 41 35 33 46 46 45 53 65 56 55 49 43 53 38 29 21 24 16 18 13 9 11 9 7
26 34 37 45 47 45 40 38 36 35 35 39 38 37 38 42 44 50 58 63 48 31 29 42 43 48 50 53 59 54 48 45 45 34 26 25 20 20 16 9 10 9 7
25 24 29 40 51 51 45 43 42 42 40 37 39 42 46 47 46 47 51 50 52 47 41 42 55 56 48 51 55 61 54 48 48 41 30 25 22 22 18 12 12 9 7
28 31 39 46 51 48 47 45 46 45 43 40 38 42 45 46 45 46 50 55 53 56 54 46 41 48 47 48 55 61 55 48 43 44 31 26 22 24 19 16 16 13 20
41 42 45 50 52 52 50 49 48 47 42 42 44 42 45 47 46 48 51 50 53 51 48 46 39 43 47 47 49 58 59 54 40 45 33 31 22 23 24 22 18 17 16
45 45 49 53 53 51 50 50 51 52 52 48 46 49 50 47 43 44 49 49 49 51 49 47 40 37 39 39 46 57 58 56 48 43 39 32 25 27 27 24 18 16 19
49 50 55 55 54 52 52 52 53 57 58 53 46 48 49 48 52 52 49 50 49 57 60 48 47 43 40 35 42 52 53 53 47 43 44 36 33 36 33 29 19 19 20
50 54 56 56 56 55 54 54 58 63 61 58 55 54 60 58 57 57 59 55 49 46 56 63 56 45 42 39 38 43 51 55 58 50 47 45 38 35 32 33 19 21 23
53 57 59 59 59 58 56 58 65 68 63 58 58 52 54 52 51 51 55 57 61 63 66 62 38 46 51 42 36 44 50 61 56 64 56 49 43 40 34 33 23 22 24
57 59 60 60 62 62 61 67 76 73 64 64 62 60 57 56 59 54 51 59 64 59 52 49 59 46 42 40 33 41 52 82 70 63 64 55 46 41 37 32 28 23 23
58 61 62 64 66 67 69 78 81 76 65 63 63 64 66 66 63 55 57 54 50 62 68 63 56 50 52 41 45 42 70 70 73 70 66 61 48 49 40 37 29 24 26
63 65 66 68 69 70 81 83 78 68 66 70 70 71 71 71 74 70 60 63 61 53 50 64 67 55 52 46 57 55 69 65 73 68 72 58 60 53 49 42 35 27 28
63 66 74 79 80 82 83 80 72 74 77 79 78 78 76 80 81 82 81 77 76 73 69 58 74 65 56 55 66 65 74 83 79 74 75 67 59 52 49 45 35 28 30
70 75 83 85 84 81 77 72 67 71 78 81 82 83 84 88 93 97 90 84 84 82 80 74 75 83 65 46 71 80 79 82 78 82 80 75 69 57 49 44 35 33 34
74 80 85 85 81 75 75 73 71 75 80 83 85 87 88 88 96 97 90 85 88 86 88 82 81 77 91 47 64 79 76 75 77 70 83 78 69 52 39 43 41 38 36
76 78 79 77 77 76 72 77 76 75 79 82 82 82 82 86 87 80 87 91 92 90 84 87 78 64 99 85 45 71 88 88 77 78 86 71 76 58 57 48 46 40 38
72 70 71 67 73 79 66 60 60 66 75 78 80 83 83 85 89 89 90 91 97 97 89 86 81 73 82 108 97 69 94 92 91 64 87 63 76 75 48 51 50 51 47
Wind_Direction_500mb
264 266 258 254 259 263 279 297 312 298 278 266 263 260 272 277 275 270 265 285 287 287 291 294 285 266 254 258 279 301 322 356 359 350 338 347 344 5 353 352 341 321 314
338 305 302 278 269 272 260 253 251 260 264 271 291 283 272 260 261 260 274 275 276 277 278 288 292 273 256 247 254 273 293 322 342 338 331 339 342 353 353 350 339 326 326
341 339 322 327 313 275 284 295 296 297 288 289 290 294 295 294 280 258 260 269 275 275 274 277 284 281 258 245 245 254 273 295 313 311 321 331 334 330 338 316 316 323 322
339 345 330 316 290 301 304 305 297 293 283 275 268 267 268 281 288 296 262 250 274 287 272 270 271 277 259 248 243 246 256 271 288 294 302 324 312 296 304 301 310 317 323
326 338 328 317 317 317 315 313 301 278 277 275 275 272 276 275 278 289 297 273 247 278 278 266 262 268 266 250 245 240 244 255 270 282 286 295 284 272 268 289 310 308 321
331 336 327 322 323 323 316 291 280 282 287 297 301 293 285 275 262 259 268 280 276 262 270 266 255 259 269 254 247 242 241 244 252 273 278 276 274 274 270 297 309 301 315
339 333 327 324 319 315 304 301 299 299 300 303 297 300 297 287 285 287 284 280 281 257 260 262 259 256 255 261 251 239 240 237 244 252 259 256 266 271 269 286 291 302 294
335 336 331 322 317 319 314 311 310 308 304 310 309 308 311 307 307 288 292 280 272 273 264 260 258 255 252 255 263 238 236 236 237 248 246 244 251 265 262 280 295 287 229
323 330 333 329 323 323 324 310 301 294 292 292 284 288 307 290 314 284 276 315 274 277 263 263 262 260 249 257 256 251 235 234 233 236 233 238 231 250 253 272 292 273 202
321 325 330 331 327 324 319 316 309 288 288 289 291 270 272 284 293 301 304 308 294 287 267 257 265 264 250 250 248 258 248 233 228 231 229 232 217 238 243 260 277 254 201
319 328 316 316 320 320 317 308 301 295 289 280 275 279 276 279 282 284 286 301 314 296 292 265 263 266 256 251 251 250 247 243 229 228 224 232 210 232 238 252 257 239 154
275 305 296 290 306 309 308 307 303 299 297 288 276 269 269 275 280 287 296 296 297 299 305 287 278 278 275 249 242 244 244 253 232 227 218 222 222 225 229 242 241 201 172
289 288 288 299 303 303 300 297 298 301 302 295 287 277 267 262 271 282 289 293 296 296 297 292 285 268 266 254 244 245 234 246 234 227 217 217 219 227 226 234 237 197 203
292 296 304 307 307 305 302 298 295 297 291 282 279 277 278 275 271 266 280 291 299 295 294 294 288 267 253 255 246 247 230 245 233 222 215 219 207 237 225 230 239 232 241
291 297 301 301 298 295 294 294 294 295 291 282 277 275 273 276 279 280 272 276 284 292 291 287 306 283 268 265 249 244 240 240 240 227 223 219 197 226 232 234 233 240 240
286 294 305 307 303 299 297 295 293 294 292 285 275 275 276 269 265 264 274 277 278 278 283 282 286 299 281 271 264 244 245 232 234 233 221 218 201 214 221 233 225 242 239
292 298 303 303 300 295 292 287 286 289 288 281 279 272 269 269 271 265 259 260 271 272 274 277 275 290 276 268 257 250 244 221 233 222 213 212 199 211 220 230 224 239 244
291 297 299 298 294 291 287 281 281 281 281 274 277 277 279 280 276 264 262 263 264 262 267 278 266 272 276 273 254 253 234 222 233 219 214 210 201 209 217 228 226 237 242
291 294 295 292 290 289 283 277 281 281 277 271 273 277 281 279 276 279 271 263 259 259 260 278 276 266 276 257 236 244 237 226 215 217 212 210 205 206 216 224 228 233 240
290 293 292 289 287 285 279 281 286 286 279 271 269 269 271 273 268 272 276 274 272 262 257 259 263 262 265 247 231 214 204 213 207 209 211 215 215 207 214 225 226 227 233
286 289 289 288 286 281 282 286 287 281 276 274 276 275 275 271 265 264 264 267 270 268 267 261 258 253 254 234 215 210 204 215 206 209 216 211 215 206 212 220 223 217 227
287 286 286 288 287 285 284 284 276 270 272 274 276 272 273 273 268 268 265 261 254 255 254 250 250 247 244 236 219 214 212 205 200 215 214 210 213 210 216 222 222 218 222
282 284 287 291 292 293 293 292 288 282 278 275 273 272 271 267 266 267 269 267 262 258 252 249 252 242 238 242 228 217 215 214 225 217 214 213 209 207 217 223 222 220 218
281 286 290 294 295 293 290 290 284 282 282 281 279 277 275 266 263 262 264 263 261 263 257 247 246 240 234 224 222 233 231 221 216 227 212 208 205 199 216 223 214 215 214
286 287 289 290 292 292 290 290 291 289 286 283 282 280 273 271 272 265 260 261 260 260 260 259 249 251 232 225 230 221 212 206 208 209 208 211 196 189 210 217 216 213 211
291 297 300 299 294 301 310 311 308 300 294 289 289 289 287 283 280 271 261 260 257 255 254 247 248 243 238 228 233 229 223 213 206 194 205 201 185 190 188 213 223 216 206
Wind_Speed_850mb
13 15 20 22 23 18 19 23 24 30 33 45 42 34 37 34 35 38 43 45 46 47 49 40 34 28 22 16 12 10 8 10 10 11 10 9 10 10 8 6 6 8 8
9 11 12 11 20 20 24 33 36 33 32 35 41 42 46 46 38 31 34 49 47 41 43 43 40 35 29 23 17 13 10 8 9 11 10 9 9 7 7 6 7 9 8
14 15 15 14 14 25 30 28 20 25 27 32 38 43 45 49 53 48 36 33 53 51 46 46 46 38 37 30 24 18 11 11 8 10 10 8 7 5 6 6 7 8 9
19 20 20 17 25 29 29 22 22 26 28 31 38 38 40 39 54 50 58 44 40 48 49 41 45 40 37 37 31 23 16 13 10 11 11 7 6 5 4 5 7 8 7
19 21 21 24 30 30 26 21 24 30 34 34 36 34 39 45 41 48 52 48 52 45 46 44 44 42 36 41 38 30 24 17 13 14 11 8 7 4 5 5 6 9 7
20 24 22 23 28 29 26 25 34 39 42 40 38 43 47 50 58 57 46 48 41 48 52 48 43 47 48 44 45 37 31 24 17 16 9 10 10 5 8 7 7 8 5
24 26 24 24 25 26 30 35 39 38 37 29 37 45 46 48 47 45 40 41 35 45 50 46 54 59 53 52 52 45 41 31 22 19 10 12 10 7 9 8 8 8 4
30 28 28 25 25 28 31 30 32 36 35 26 31 43 38 46 26 29 40 53 49 42 51 54 52 54 61 52 56 53 48 36 28 21 14 15 11 13 11 10 9 8 3
36 35 33 30 27 28 28 29 32 32 38 34 26 25 23 14 55 37 25 23 43 52 47 51 48 67 58 50 55 43 54 48 33 23 19 18 12 16 12 10 11 9 6
33 34 39 39 36 34 33 31 25 30 33 36 30 28 37 49 51 46 57 41 35 33 46 46 45 53 65 56 55 49 43 53 38 29 21 24 16 18 13 9 11 9 7
26 34 37 45 47 45 40 38 36 35 35 39 38 37 38 42 44 50 58 63 48 31 29 42 43 48 50 53 59 54 48 45 45 34 26 25 20 20 16 9 10 9 7
25 24 29 40 51 51 45 43 42 42 40 37 39 42 46 47 46 47 51 50 52 47 41 42 55 56 48 51 55 61 54 48 48 41 30 25 22 22 18 12 12 9 7
28 31 39 46 51 48 47 45 46 45 43 40 38 42 45 46 45 46 50 55 53 56 54 46 41 48 47 48 55 61 55 48 43 44 31 26 22 24 19 16 16 13 20
41 42 45 50 52 52 50 49 48 47 42 42 44 42 45 47 46 48 51 50 53 51 48 46 39 43 47 47 49 58 59 54 40 45 33 31 22 23 24 22 18 17 16
45 45 49 53 53 51 50 50 51 52 52 48 46 49 50 47 43 44 49 49 49 51 49 47 40 37 39 39 46 57 58 56 48 43 39 32 25 27 27 24 18 16 19
49 50 55 55 54 52 52 52 53 57 58 53 46 48 49 48 52 52 49 50 49 57 60 48 47 43 40 35 42 52 53 53 47 43 44 36 33 36 33 29 19 19 20
50 54 56 56 56 55 54 54 58 63 61 58 55 54 60 58 57 57 59 55 49 46 56 63 56 45 42 39 38 43 51 55 58 50 47 45 38 35 32 33 19 21 23
53 57 59 59 59 58 56 58 65 68 63 58 58 52 54 52 51 51 55 57 61 63 66 62 38 46 51 42 36 44 50 61 56 64 56 49 43 40 34 33 23 22 24
57 59 60 60 62 62 61 67 76 73 64 64 62 60 57 56 59 54 51 59 64 59 52 49 59 46 42 40 33 41 52 82 70 63 64 55 46 41 37 32 28 23 23
58 61 62 64 66 67 69 78 81 76 65 63 63 64 66 66 63 55 57 54 50 62 68 63 56 50 52 41 45 42 70 70 73 70 66 61 48 49 40 37 29 24 26
63 65 66 68 69 70 81 83 78 68 66 70 70 71 71 71 74 70 60 63 61 53 50 64 67 55 52 46 57 55 69 65 73 68 72 58 60 53 49 42 35 27 28
63 66 74 79 80 82 83 80 72 74 77 79 78 78 76 80 81 82 81 77 76 73 69 58 74 65 56 55 66 65 74 83 79 74 75 67 59 52 49 45 35 28 30
70 75 83 85 84 81 77 72 67 71 78 81 82 83 84 88 93 97 90 84 84 82 80 74 75 83 65 46 71 80 79 82 78 82 80 75 69 57 49 44 35 33 34
74 80 85 85 81 75 75 73 71 75 80 83 85 87 88 88 96 97 90 85 88 86 88 82 81 77 91 47 64 79 76 75 77 70 83 78 69 52 39 43 41 38 36
76 78 79 77 77 76 72 77 76 75 79 82 82 82 82 86 87 80 87 91 92 90 84 87 78 64 99 85 45 71 88 88 77 78 86 71 76 58 57 48 46 40 38
72 70 71 67 73 79 66 60 60 66 75 78 80 83 83 85 89 89 90 91 97 97 89 86 81 73 82 108 97 69 94 92 91 64 87 63 76 75 48 51 50 51 47
Wind_Direction_850mb
264 266 258 254 259 263 279 297 312 298 278 266 263 260 272 277 275 270 265 285 287 287 291 294 285 266 254 258 279 301 322 356 359 350 338 347 344 5 353 352 341 321 314
338 305 302 278 269 272 260 253 251 260 264 271 291 283 272 260 261 260 274 275 276 277 278 288 292 273 256 247 254 273 293 322 342 338 331 339 342 353 353 350 339 326 326
341 339 322 327 313 275 284 295 296 297 288 289 290 294 295 294 280 258 260 269 275 275 274 277 284 281 258 245 245 254 273 295 313 311 321 331 334 330 338 316 316 323 322
339 345 330 316 290 301 304 305 297 293 283 275 268 267 268 281 288 296 262 250 274 287 272 270 271 277 259 248 243 246 256 271 288 294 302 324 312 296 304 301 310 317 323
326 338 328 317 317 317 315 313 301 278 277 275 275 272 276 275 278 289 297 273 247 278 278 266 262 268 266 250 245 240 244 255 270 282 286 295 284 272 268 289 310 308 321
331 336 327 322 323 323 316 291 280 282 287 297 301 293 285 275 262 259 268 280 276 262 270 266 255 259 269 254 247 242 241 244 252 273 278 276 274 274 270 297 309 301 315
339 333 327 324 319 315 304 301 299 299 300 303 297 300 297 287 285 287 284 280 281 257 260 262 259 256 255 261 251 239 240 237 244 252 259 256 266 271 269 286 291 302 294
335 336 331 322 317 319 314 311 310 308 304 310 309 308 311 307 307 288 292 280 272 273 264 260 258 255 252 255 263 238 236 236 237 248 246 244 251 265 262 280 295 287 229
323 330 333 329 323 323 324 310 301 294 292 292 284 288 307 290 314 284 276 315 274 277 263 263 262 260 249 257 256 251 235 234 233 236 233 238 231 250 253 272 292 273 202
321 325 330 331 327 324 319 316 309 288 288 289 291 270 272 284 293 301 304 308 294 287 267 257 265 264 250 250 248 258 248 233 228 231 229 232 217 238 243 260 277 254 201
319 328 316 316 320 320 317 308 301 295 289 280 275 279 276 279 282 284 286 301 314 296 292 265 263 266 256 251 251 250 247 243 229 228 224 232 210 232 238 252 257 239 154
275 305 296 290 306 309 308 307 303 299 297 288 276 269 269 275 280 287 296 296 297 299 305 287 278 278 275 249 242 244 244 253 232 227 218 222 222 225 229 242 241 201 172
289 288 288 299 303 303 300 297 298 301 302 295 287 277 267 262 271 282 289 293 296 296 297 292 285 268 266 254 244 245 234 246 234 227 217 217 219 227 226 234 237 197 203
292 296 304 307 307 305 302 298 295 297 291 282 279 277 278 275 271 266 280 291 299 295 294 294 288 267 253 255 246 247 230 245 233 222 215 219 207 237 225 230 239 232 241
291 297 301 301 298 295 294 294 294 295 291 282 277 275 273 276 279 280 272 276 284 292 291 287 306 283 268 265 249 244 240 240 240 227 223 219 197 226 232 234 233 240 240
286 294 305 307 303 299 297 295 293 294 292 285 275 275 276 269 265 264 274 277 278 278 283 282 286 299 281 271 264 244 245 232 234 233 221 218 201 214 221 233 225 242 239
292 298 303 303 300 295 292 287 286 289 288 281 279 272 269 269 271 265 259 260 271 272 274 277 275 290 276 268 257 250 244 221 233 222 213 212 199 211 220 230 224 239 244
291 297 299 298 294 291 287 281 281 281 281 274 277 277 279 280 276 264 262 263 264 262 267 278 266 272 276 273 254 253 234 222 233 219 214 210 201 209 217 228 226 237 242
291 294 295 292 290 289 283 277 281 281 277 271 273 277 281 279 276 279 271 263 259 259 260 278 276 266 276 257 236 244 237 226 215 217 212 210 205 206 216 224 228 233 240
290 293 292 289 287 285 279 281 286 286 279 271 269 269 271 273 268 272 276 274 272 262 257 259 263 262 265 247 231 214 204 213 207 209 211 215 215 207 214 225 226 227 233
286 289 289 288 286 281 282 286 287 281 276 274 276 275 275 271 265 264 264 267 270 268 267 261 258 253 254 234 215 210 204 215 206 209 216 211 215 206 212 220 223 217 227
287 286 286 288 287 285 284 284 276 270 272 274 276 272 273 273 268 268 265 261 254 255 254 250 250 247 244 236 219 214 212 205 200 215 214 210 213 210 216 222 222 218 222
282 284 287 291 292 293 293 292 288 282 278 275 273 272 271 267 266 267 269 267 262 258 252 249 252 242 238 242 228 217 215 214 225 217 214 213 209 207 217 223 222 220 218
281 286 290 294 295 293 290 290 284 282 282 281 279 277 275 266 263 262 264 263 261 263 257 247 246 240 234 224 222 233 231 221 216 227 212 208 205 199 216 223 214 215 214
286 287 289 290 292 292 290 290 291 289 286 283 282 280 273 271 272 265 260 261 260 260 260 259 249 251 232 225 230 221 212 206 208 209 208 211 196 189 210 217 216 213 211
291 297 300 299 294 301 310 311 308 300 294 289 289 289 287 283 280 271 261 260 257 255 254 247 248 243 238 228 233 229 223 213 206 194 205 201 185 190 188 213 223 216 206